Voltar ao catálogo

STARLINK-4046

AtivoComunicaçõesVLEO
NORAD 52842·PAYLOAD·🇺🇸 United States

Lançado Jun 17, 2022 de Cape Canaveral Space Force Station

Loading…

Próximas Passagens (próximas 24 horas)

TLE

AtualizadoSource: CelesTrak SupGP

Época: Sep 15, 2026, 01:50 UTC

1 52842C 22062N   26258.07687500 -.00018938  00000+0 -55959-3 0  2583
2 52842  53.1583 253.2781 0001152  91.9945  82.3677 15.34396093    19

Acompanhe STARLINK-4046 em tempo real com AllMySat

Download on the App Store